Location: Beugnon
(47.6222°N, 3.7850°E)
Time: 09:04:34
(UTC+00:00)

STARLINK-1222 - Pass Details

Date: 09 April 2020
Orbit: 376 x 383 km, 53.0° (Epoch: 02 June)

Event Time Altitude Azimuth Distance (km) Brightness Sun altitude
Rises 19:59:47 0° 296° (WNW) 2,267 8.6 -15.4°
Reaches altitude 10° 20:01:53 10° 291° (WNW) 1,411 7.0 -15.7°
Maximum altitude 20:04:56 50° 215° (SW) 498 3.4 -16.1°
Enters shadow 20:05:46 37° 166° (SSE) 611 3.5 -16.2°
